Flag for Venezuela Weather past 2 weeks in Caracas, Venezuela

Now
88 °F

Passing clouds.


Feels Like: 98 °F
Forecast: 69 / 79 °F
Wind: 3 mph from Northeast

Location: Caracas / Maiquetia Aerop. Intl. Simon Bolivar

Current Time: Aug 29, 2015 at 2:49:38 PM

Latest Report: Aug 29, 2015 at 2:30 PM


Visibility: N/A

Pressure: 29.89 "Hg (27.09 "Hg at 875m altitude)

Humidity: 66%

Dew point: 75 °F

Location of CaracasLocation

Historic Weather in Caracas — Graph

°F

Caracas temperature yesterday

Maximum temperature yesterday: 90 °F (at 3:30 PM)
Minimum temperature yesterday: 79 °F (at 1:30 AM)
Average temperature yesterday: 82 °F

Past Weeks' High & Low Weather Summary

 TemperatureHumidityPressure
High91 °F (Aug 19, 12:30 PM)94% (Aug 22, 9:30 PM)29.98 "Hg (Aug 22, 9:30 PM)
Low75 °F (Aug 19, 7:30 AM)59% (Aug 19, 11:30 AM)29.80 "Hg (Aug 24, 4:30 PM)
Average82 °F76%29.89 "Hg
* Reported Aug 14 1:30 PM — Aug 29 1:30 PM, Caracas, Weather by CustomWeather, © 2015

Note: Actual official high and low records may vary slightly from our data, if they occured in-between our weather recording intervals... More about our weather records

Advertising

Caracas weather history for previous 24 hours

 ConditionsComfort  
Time TempWeatherWind HumidityBarometerVisibility
1:30 PM
Sat, Aug 29
86 °FPassing clouds.5 mph70%29.89 "HgN/A
12:30 PM88 °FPassing clouds.7 mph66%29.89 "HgN/A
11:30 AM88 °FPassing clouds.10 mph62%29.89 "HgN/A
10:30 AM86 °FPassing clouds.2 mph66%29.92 "HgN/A
9:30 AM84 °FPassing clouds.5 mph66%29.92 "HgN/A
8:30 AM81 °FPassing clouds.2 mph70%29.92 "HgN/A
7:30 AM77 °FPassing clouds.No wind74%29.92 "HgN/A
6:30 AM77 °FPassing clouds.No wind79%29.86 "HgN/A
5:30 AM77 °FPassing clouds.6 mph83%29.86 "HgN/A
4:30 AM77 °FPassing clouds.3 mph83%29.86 "HgN/A
2:30 AM79 °FClear.No wind84%29.86 "Hg10 mi
1:30 AM79 °FClear.7 mph84%29.86 "Hg10 mi
12:30 AM79 °FClear.No wind84%29.89 "Hg10 mi
11:30 PM
Fri, Aug 28
79 °FPassing clouds.No wind84%29.92 "HgN/A
10:30 PM79 °FPassing clouds.No wind84%29.92 "HgN/A
9:30 PM79 °FPassing clouds.No wind89%29.92 "HgN/A
8:30 PM79 °FPassing clouds.2 mph89%29.89 "HgN/A
7:30 PM81 °FPassing clouds.2 mph84%29.86 "HgN/A
6:30 PM84 °FPassing clouds.2 mph79%29.86 "HgN/A
5:30 PM86 °FScattered clouds.3 mph70%29.83 "HgN/A
4:30 PM86 °FScattered clouds.6 mph70%29.83 "HgN/A
3:30 PM90 °FScattered clouds.8 mph63%29.83 "HgN/A
2:30 PM88 °FPartly sunny.10 mph66%29.86 "HgN/A
Weather by CustomWeather, © 2015

See weather overviewHow to use our weather pages